| time (UTC) | temp C | wind direction | speed KPH | gust KPH | rain 1hr cm | rain 24hr cm | rain mn cm | humidity % | barometer mb |
| 20260505124518 | 6 | 188 | 0.0 | 1.6 | 0.00 | 0.00 | 0.00 | 58 | 1002.5 |
| 20260505123015 | 7 | 219 | 0.0 | 0.0 | 0.00 | 0.00 | 0.00 | 56 | 1002.0 |
| 20260505121529 | 7 | 214 | 0.0 | 0.0 | 0.00 | 0.00 | 0.00 | 54 | 1002.2 |
| 20260505120012 | 8 | 216 | 0.0 | 0.0 | 0.00 | 0.00 | 0.00 | 52 | 1002.4 |
| 20260505114509 | 8 | 244 | 0.0 | 1.6 | 0.00 | 0.00 | 0.00 | 52 | 1002.4 |
| 20260505113008 | 8 | 216 | 0.0 | 1.6 | 0.00 | 0.00 | 0.00 | 51 | 1002.4 |
| 20260505111508 | 8 | 213 | 0.0 | 3.2 | 0.00 | 0.00 | 0.00 | 50 | 1002.4 |
| 20260505101504 | 9 | 230 | 0.0 | 0.0 | 0.00 | 0.00 | 0.00 | 45 | 1002.1 |
| 20260505100014 | 10 | 242 | 0.0 | 0.0 | 0.00 | 0.00 | 0.00 | 43 | 1002.3 |
| 20260505094503 | 10 | 246 | 0.0 | 1.6 | 0.00 | 0.00 | 0.00 | 43 | 1002.3 |
| 20260505093003 | 10 | 237 | 0.0 | 1.6 | 0.00 | 0.00 | 0.00 | 43 | 1002.3 |
| 20260505091501 | 10 | 248 | 0.0 | 3.2 | 0.00 | 0.00 | 0.00 | 42 | 1002.6 |
| 20260505090000 | 10 | 225 | 0.0 | 1.6 | 0.00 | 0.00 | 0.00 | 42 | 1002.8 |
| 20260505084600 | 10 | 234 | 0.0 | 1.6 | 0.00 | 0.00 | 0.00 | 41 | 1003.0 |
| 20260505083107 | 10 | 219 | 0.0 | 1.6 | 0.00 | 0.00 | 0.00 | 42 | 1003.3 |
| 20260505081601 | 10 | 207 | 0.0 | 1.6 | 0.00 | 0.00 | 0.00 | 43 | 1003.5 |
| 20260505080056 | 10 | 226 | 0.0 | 1.6 | 0.00 | 0.00 | 0.00 | 42 | 1003.4 |
| 20260505074552 | 10 | 221 | 0.0 | 1.6 | 0.00 | 0.00 | 0.00 | 46 | 1003.3 |
| 20260505073048 | 8 | 240 | 0.0 | 0.0 | 0.00 | 0.00 | 0.00 | 51 | 1003.2 |
| 20260505071548 | 7 | 221 | 0.0 | 0.0 | 0.00 | 0.00 | 0.00 | 57 | 1002.7 |
| 20260505070041 | 7 | 164 | 0.0 | 0.0 | 0.00 | 0.00 | 0.00 | 64 | 1002.5 |
| 20260505064541 | 7 | 55 | 0.0 | 0.0 | 0.00 | 0.00 | 0.00 | 63 | 1002.4 |
| 20260505063039 | 7 | 55 | 0.0 | 0.0 | 0.00 | 0.00 | 0.00 | 62 | 1002.3 |
| 20260505061536 | 7 | 55 | 0.0 | 0.0 | 0.00 | 0.00 | 0.00 | 60 | 1002.1 |
| 20260505060036 | 8 | 55 | 0.0 | 0.0 | 0.00 | 0.00 | 0.00 | 57 | 1002.1 |
| 20260505054531 | 8 | 55 | 0.0 | 0.0 | 0.00 | 0.00 | 0.00 | 54 | 1002.2 |
| 20260505053029 | 9 | 55 | 0.0 | 0.0 | 0.00 | 0.00 | 0.00 | 51 | 1002.0 |
| 20260505051529 | 9 | 55 | 0.0 | 0.0 | 0.00 | 0.00 | 0.00 | 49 | 1002.1 |
| 20260505041525 | 10 | 5 | 0.0 | 0.0 | 0.00 | 0.00 | 0.00 | 48 | 1002.3 |
| 20260505040029 | 10 | 319 | 0.0 | 0.0 | 0.00 | 0.00 | 0.00 | 47 | 1002.0 |
| 20260505034524 | 10 | 309 | 0.0 | 0.0 | 0.00 | 0.00 | 0.00 | 46 | 1002.2 |
| 20260505033034 | 11 | 309 | 0.0 | 0.0 | 0.00 | 0.00 | 0.00 | 45 | 1002.2 |
| 20260505031524 | 11 | 308 | 0.0 | 0.0 | 0.00 | 0.00 | 0.00 | 40 | 1001.7 |
| 20260505030024 | 12 | 309 | 0.0 | 0.0 | 0.00 | 0.00 | 0.00 | 37 | 1001.6 |
| 20260505024537 | 13 | 308 | 0.0 | 0.0 | 0.00 | 0.00 | 0.00 | 35 | 1001.4 |
| 20260505023033 | 13 | 307 | 0.0 | 0.0 | 0.00 | 0.00 | 0.00 | 30 | 1001.4 |
| 20260505021522 | 14 | 308 | 0.0 | 0.0 | 0.00 | 0.00 | 0.00 | 29 | 1001.2 |
| 20260505020022 | 15 | 297 | 0.0 | 0.0 | 0.00 | 0.00 | 0.00 | 26 | 1001.2 |
| 20260505014533 | 15 | 288 | 0.0 | 0.0 | 0.00 | 0.00 | 0.00 | 25 | 1001.1 |
| 20260505013020 | 16 | 273 | 0.0 | 4.8 | 0.00 | 0.00 | 0.00 | 24 | 1000.8 |
| 20260505011520 | 16 | 262 | 0.0 | 6.4 | 0.00 | 0.00 | 0.00 | 24 | 1000.9 |
| 20260505010021 | 16 | 278 | 0.0 | 16.1 | 0.00 | 0.00 | 0.00 | 24 | 1001.1 |
| 20260505004518 | 17 | 300 | 0.0 | 8.0 | 0.00 | 0.00 | 0.00 | 23 | 1001.1 |
| 20260505003017 | 17 | 261 | 0.0 | 20.9 | 0.00 | 0.00 | 0.00 | 24 | 1001.3 |
| 20260505001518 | 17 | 275 | 1.6 | 32.2 | 0.00 | 0.00 | 0.00 | 22 | 1001.3 |
| 20260505000017 | 17 | 225 | 3.2 | 27.4 | 0.00 | 0.00 | 0.00 | 22 | 1001.3 |
| 20260504234517 | 17 | 269 | 1.6 | 22.5 | 0.00 | 0.00 | 0.00 | 20 | 1001.1 |
| 20260504233015 | 17 | 258 | 0.0 | 29.0 | 0.00 | 0.00 | 0.00 | 23 | 1000.8 |
| 20260504231516 | 18 | 248 | 1.6 | 37.0 | 0.00 | 0.00 | 0.00 | 20 | 1001.1 |
| 20260504230014 | 18 | 257 | 0.0 | 24.1 | 0.00 | 0.00 | 0.00 | 21 | 1000.6 |
| 20260504224513 | 18 | 227 | 1.6 | 24.1 | 0.00 | 0.00 | 0.00 | 21 | 1000.4 |
| 20260504223012 | 19 | 246 | 3.2 | 32.2 | 0.00 | 0.00 | 0.00 | 21 | 1000.6 |
| 20260504221512 | 19 | 222 | 1.6 | 33.8 | 0.00 | 0.00 | 0.00 | 21 | 1000.5 |
| 20260504220009 | 20 | 246 | 0.0 | 35.4 | 0.00 | 0.00 | 0.00 | 25 | 1000.8 |
| 20260504214507 | 19 | 239 | 1.6 | 20.9 | 0.00 | 0.00 | 0.00 | 24 | 1001.1 |
| 20260504213009 | 18 | 242 | 3.2 | 22.5 | 0.00 | 0.00 | 0.00 | 24 | 1001.3 |
| 20260504211513 | 18 | 224 | 1.6 | 24.1 | 0.00 | 0.00 | 0.00 | 22 | 1001.4 |
| 20260504210003 | 18 | 253 | 1.6 | 19.3 | 0.00 | 0.00 | 0.00 | 26 | 1001.6 |
| 20260504204625 | 18 | 256 | 1.6 | 19.3 | 0.00 | 0.00 | 0.00 | 26 | 1001.8 |
| 20260504203135 | 18 | 259 | 0.0 | 17.7 | 0.00 | 0.00 | 0.00 | 25 | 1002.1 |
| 20260504201657 | 19 | 226 | 0.0 | 19.3 | 0.00 | 0.00 | 0.00 | 27 | 1002.1 |
| 20260504200055 | 19 | 261 | 0.0 | 8.0 | 0.00 | 0.00 | 0.00 | 29 | 1002.2 |
| 20260504194554 | 19 | 243 | 1.6 | 20.9 | 0.00 | 0.00 | 0.00 | 30 | 1002.5 |
| 20260504193051 | 18 | 236 | 0.0 | 8.0 | 0.00 | 0.00 | 0.00 | 31 | 1002.4 |
| 20260504191553 | 18 | 206 | 0.0 | 9.7 | 0.00 | 0.00 | 0.00 | 33 | 1002.5 |
| 20260504190052 | 18 | 248 | 0.0 | 14.5 | 0.00 | 0.00 | 0.00 | 35 | 1002.9 |
| 20260504184545 | 18 | 246 | 0.0 | 12.9 | 0.00 | 0.00 | 0.00 | 36 | 1002.7 |
| 20260504183042 | 17 | 257 | 0.0 | 19.3 | 0.00 | 0.00 | 0.00 | 36 | 1003.1 |
| 20260504181539 | 17 | 271 | 0.0 | 8.0 | 0.00 | 0.00 | 0.00 | 38 | 1003.5 |
| 20260504180037 | 17 | 266 | 0.0 | 9.7 | 0.00 | 0.00 | 0.00 | 38 | 1003.6 |
| 20260504174534 | 17 | 251 | 0.0 | 20.9 | 0.00 | 0.00 | 0.00 | 41 | 1003.8 |
| 20260504173029 | 16 | 219 | 0.0 | 6.4 | 0.00 | 0.00 | 0.00 | 45 | 1004.2 |
| 20260504171525 | 15 | 221 | 0.0 | 0.0 | 0.00 | 0.00 | 0.00 | 47 | 1004.4 |